Regional Weather Roundup
Issued by NWS Lake Charles, LA

Home | Current Version | Previous Version | Text Only | Print | Product List | Glossary On
Versions: 1 2 3 4 5 6 7 8 9 10 11 12 13 14 15 16 17 18 19 20 21 22 23 24 25 26 27 28 29 30 31 32 33 34 35 36 37 38 39 40 41 42 43 44 45 46 47 48 49 50
000
ASUS44 KLCH 300310
RWRLCH
RWRLCH
REGIONAL WEATHER ROUNDUP
NATIONAL WEATHER SERVICE LAKE CHARLES LA
1000 PM CDT FRI MAY 29 2015

Note: "fair" indicates few or no clouds below 12,000 feet with no
significant weather and/or obstructions to visibility.


ACROSS SOUTHEAST TEXAS

CITY           SKY/WX    TMP DP  RH WIND       PRES   REMARKS
BEAUMONT       CLEAR     76  73  91 S6        29.99R
BEAUMONT CITY    N/A     75  73  93 SE3       30.00R
ORANGE         CLEAR     77  74  89 S5        30.02R
JASPER         CLEAR     78  73  85 S5        30.02R
$$

ACROSS CENTRAL LOUISIANA

CITY           SKY/WX    TMP DP  RH WIND       PRES   REMARKS
LEESVILLE      CLEAR     77  72  85 S9        30.00R
FULLERTON        N/A     80  71  74 VRB5      29.99R
ALEXANDRIA INT MOCLDY    75  72  90 SE6       30.00R
ESLER FIELD    CLOUDY    73  69  87 E3        30.02R THUNDER
DERIDDER         N/A     77  74  90 S3        30.02R
OAKDALE        PTCLDY    75  73  94 SE3       30.02R
OPELOUSAS        N/A     77  72  83 S6        30.03R
$$

ACROSS SOUTHWEST AND SOUTH CENTRAL LOUISIANA

CITY           SKY/WX    TMP DP  RH WIND       PRES   REMARKS
SULPHUR        PTCLDY    78  75  90 S5        30.01S
LAKE CHARLES   PTCLDY    78  73  84 S5        30.00S
CHENNAULT INT  PTCLDY    75  73  94 S5        30.02
CAMERON PHI    PTCLDY    81  73  78 S13       30.04S
DEQUINCY         N/A     76  76 100 SE5       30.00S
JENNINGS         N/A     77  73  87 CALM      30.02R
LAFAYETTE      PTCLDY    79  73  82 VRB5      30.04R
NEW IBERIA     PTCLDY    78  73  84 S6        30.04R
ABBEVILLE        N/A     76  73  88 S5        30.03R
PATTERSON      MOCLDY    73  70  88 CALM      30.05R
SALT POINT       N/A     78  73  84 VRB3      30.01R
$$

SELECTED SITES ACROSS THE REGION

CITY           SKY/WX    TMP DP  RH WIND       PRES   REMARKS
HOUSTON BUSH   PTCLDY    78  68  71 S6        29.97R
HOUSTON HOBBY  PTCLDY    77  72  84 S6        29.98R
GALVESTON      PTCLDY    79  76  90 S9        30.00R
COLLEGE STAT   CLEAR     79  70  74 S6        29.96R
CONROE         CLEAR     74  68  81 E3        29.98R
HUNTSVILLE     CLEAR     79  68  69 S3        29.97R
LUFKIN         CLEAR     79  71  76 S6        29.97R
SHREVEPORT     PTCLDY    77  71  82 S5        29.96R
MONROE         TSTM      69  66  90 SE9G17    30.04R
NATCHEZ MS     MOCLDY    73  70  88 S5        30.05R
BATON ROUGE    MOCLDY    75  71  87 E3        30.04R
N.O. INTL ARPT MOCLDY    78  68  71 SE7       30.04S
SLIDELL        PTCLDY    76  73  91 SE6       30.05R
$$

MARINE REPORTS

STATION/POSITION TIME  TEMP    WIND        PRES    VSBY  WAVE
                       AIR SEA DIR/SP/G                  HT/PER
                 (UTC) (F)     (DEG/KT/KT) (MB)    (MI)  (FT/S)
BUOY 30 S HIGH I 0250   81 81  160/ 12/ 12 1015.0R         3/ 5
SEA RIM ST PARK  0300   80     180/ 10/ 13 1016.3R
PORT ARTHUR      0200      78  190/  5/  8 1015.7R
SABINE PASS N    0200   80 79  200/  8/ 10 1015.9R
TEXAS POINT      NOT AVBL
CALCASIEU PASS   0200   80 82  200/ 11/ 14   N/A
LK CHARLES BEACH 0200   80 77              1016.2R
MARSH ISLAND     0200   83     170/ 13/ 17   N/A           0
FRESH WATER LOCK 0200   80 84  140/  9/ 12   N/A
AMERADA PASS     0200   78 79  140/  4/  9 1016.4S
$$


USA.gov is the U.S. government's official web portal to all federal, state and local government web resources and services.